Date String (YYYY-MM-DD hh:mm:ss) UTC,Instrument flags,absolute air pressure of the measurement (hPa),sample flow rate (lpm),inlet stack bypass flow (lpm),air temperature of the measurement (°C),ambient temperature measured by the external sensor (°C),aerosol sample conditioner tube jacket temperature (°C),OPC LED temperature (°C),internal box temperature (°C),relative humidity of the measurement (%),span deviation,mass concentration of particles derived from Lorenz-Mie calculation of OPC scattering (μg/m³),mass concentration of particles derived from Lorenz-Mie calculation of OPC scattering (μg/m³),mass concentration of particles derived from Lorenz-Mie calculation of OPC scattering (μg/m³)
DateTimeUTC,F1_M11,P_M11,Q1_M11,Q2_M11,T1_M11,T2_M11,T3_M11,T4_M11,T5_M11,U1_M11,ZSPAN_M11,X0_M11,X2_M11,X1_M11
2024-03-27 00:00:00,SystemResetWarning,0821.0,5.00,000.00,020.3,019.8,000.0,028.8,022.2,17.3,0000.8,0018.54,0012.17,0011.63
2024-03-27 00:01:00,SystemResetWarning,0821.0,4.99,000.00,020.3,019.8,000.0,028.8,022.2,17.2,0000.7,0018.40,0012.09,0011.59
2024-03-27 00:02:00,SystemResetWarning,0820.9,4.99,000.00,020.4,019.8,000.0,028.8,022.2,17.3,0000.6,0017.64,0012.02,0011.57
2024-03-27 00:03:00,SystemResetWarning,0821.2,4.99,000.00,020.4,019.8,000.0,028.8,022.2,17.5,0000.4,0017.24,0011.98,0011.53
2024-03-27 00:04:00,SystemResetWarning,0821.2,5.00,000.00,020.4,019.8,000.0,028.8,022.2,17.4,0000.5,0017.65,0011.98,0011.51
2024-03-27 00:05:00,SystemResetWarning,0820.9,5.01,000.00,020.4,019.8,000.0,028.9,022.3,17.5,0000.2,0018.46,0011.94,0011.48
2024-03-27 00:06:00,SystemResetWarning,0821.0,5.01,000.00,020.4,019.9,000.0,028.9,022.3,16.9,0000.2,0018.43,0011.89,0011.44
2024-03-27 00:07:00,SystemResetWarning,0821.0,5.00,000.00,020.4,019.9,000.0,028.9,022.3,16.9,0000.2,0017.72,0011.84,0011.41
2024-03-27 00:08:00,SystemResetWarning,0821.1,4.99,000.00,020.4,019.9,000.0,028.9,022.3,17.0,0000.3,0018.57,0011.78,0011.35
2024-03-27 00:09:00,SystemResetWarning,0821.1,4.99,000.00,020.5,019.9,000.0,028.9,022.3,17.2,0000.6,0018.54,0011.74,0011.29
2024-03-27 00:10:00,SystemResetWarning,0821.1,4.99,000.00,020.5,019.9,000.0,028.9,022.3,17.0,0000.8,0018.06,0011.71,0011.24
2024-03-27 00:11:00,SystemResetWarning,0821.1,4.99,000.00,020.5,019.9,000.0,028.9,022.3,16.8,0000.8,0018.25,0011.73,0011.21
2024-03-27 00:12:00,SystemResetWarning,0821.2,5.01,000.00,020.5,019.9,000.0,028.9,022.3,16.8,0000.7,0018.36,0011.74,0011.19
2024-03-27 00:13:00,SystemResetWarning,0821.6,5.01,000.00,020.5,019.9,000.0,028.9,022.3,16.8,0001.1,0018.32,0011.73,0011.18
2024-03-27 00:14:00,SystemResetWarning,0821.4,4.99,000.00,020.5,020.0,000.0,029.0,022.3,16.8,0001.5,0018.16,0011.72,0011.16
2024-03-27 00:15:00,SystemResetWarning,0821.4,4.99,000.00,020.5,020.0,000.0,029.0,022.4,16.9,0001.5,0018.57,0011.67,0011.12
2024-03-27 00:16:00,SystemResetWarning,0821.2,5.01,000.00,020.5,020.0,000.0,029.0,022.4,16.7,0001.7,0018.75,0011.66,0011.07
2024-03-27 00:17:00,SystemResetWarning,0821.1,5.01,000.00,020.5,020.0,000.0,029.0,022.4,16.5,0001.6,0018.96,0011.64,0011.02
2024-03-27 00:18:00,SystemResetWarning,0821.1,5.01,000.00,020.5,020.0,000.0,029.0,022.4,16.6,0001.7,0019.27,0011.58,0010.97
2024-03-27 00:19:00,SystemResetWarning,0821.2,5.00,000.00,020.6,020.0,000.0,029.0,022.4,16.4,0001.8,0019.47,0011.58,0010.97
2024-03-27 00:20:00,SystemResetWarning,0821.2,5.00,000.00,020.6,020.0,000.0,029.0,022.4,16.4,0001.8,0019.73,0011.57,0010.94
2024-03-27 00:21:00,SystemResetWarning,0821.2,5.00,000.00,020.6,020.0,000.0,029.0,022.4,16.5,0001.6,0020.07,0011.56,0010.91
2024-03-27 00:22:00,SystemResetWarning,0821.2,4.99,000.00,020.6,020.0,000.0,029.0,022.4,16.7,0001.3,0020.40,0011.52,0010.89
2024-03-27 00:23:00,SystemResetWarning,0821.2,5.00,000.00,020.6,020.0,000.0,029.0,022.4,16.8,0001.2,0020.67,0011.44,0010.84
2024-03-27 00:24:00,SystemResetWarning,0821.2,5.00,000.00,020.6,020.1,000.0,029.1,022.5,16.7,0001.0,0021.05,0011.38,0010.79
2024-03-27 00:25:00,SystemResetWarning,0821.2,5.00,000.00,020.6,020.1,000.0,029.1,022.5,16.3,0000.8,0021.24,0011.33,0010.75
2024-03-27 00:26:00,SystemResetWarning,0821.2,5.00,000.00,020.6,020.1,000.0,029.1,022.5,16.3,0000.5,0020.31,0011.27,0010.70
2024-03-27 00:27:00,SystemResetWarning,0821.2,5.01,000.00,020.6,020.1,000.0,029.1,022.5,16.4,0000.5,0019.20,0011.23,0010.68
2024-03-27 00:28:00,SystemResetWarning,0821.3,5.00,000.00,020.7,020.1,000.0,029.1,022.5,16.4,0000.5,0019.15,0011.22,0010.67
2024-03-27 00:29:00,SystemResetWarning,0821.3,4.99,000.00,020.7,020.1,000.0,029.1,022.5,16.5,0000.2,0019.20,0011.24,0010.69
2024-03-27 00:30:00,SystemResetWarning,0821.3,5.00,000.00,020.7,020.1,000.0,029.1,022.5,16.4,-000.2,0018.35,0011.24,0010.67
2024-03-27 00:31:00,SystemResetWarning,0821.3,5.01,000.00,020.7,020.1,000.0,029.1,022.5,16.4,-000.5,0017.68,0011.26,0010.68
2024-03-27 00:32:00,SystemResetWarning,0821.3,5.01,000.00,020.7,020.2,000.0,029.1,022.5,16.5,-000.6,0018.08,0011.23,0010.68
2024-03-27 00:33:00,SystemResetWarning,0821.3,5.01,000.00,020.7,020.2,000.0,029.2,022.6,16.6,-000.6,0017.53,0011.24,0010.67
2024-03-27 00:34:00,SystemResetWarning,0821.3,5.00,000.00,020.7,020.2,000.0,029.2,022.6,16.6,-000.6,0017.24,0011.26,0010.67
2024-03-27 00:35:00,SystemResetWarning,0821.4,4.99,000.00,020.7,020.2,000.0,029.2,022.6,16.6,-000.5,0016.85,0011.28,0010.66
2024-03-27 00:36:00,SystemResetWarning,0821.3,4.99,000.00,020.8,020.2,000.0,029.2,022.6,16.5,-000.5,0017.28,0011.25,0010.64
2024-03-27 00:37:00,SystemResetWarning,0821.3,5.00,000.00,020.8,020.2,000.0,029.2,022.6,16.0,-000.1,0017.36,0011.24,0010.64
2024-03-27 00:38:00,SystemResetWarning,0821.3,5.00,000.00,020.8,020.2,000.0,029.2,022.6,16.2,0000.2,0017.24,0011.22,0010.63
2024-03-27 00:39:00,SystemResetWarning,0821.3,5.00,000.00,020.8,020.2,000.0,029.2,022.6,16.5,0000.1,0016.94,0011.22,0010.62
2024-03-27 00:40:00,SystemResetWarning,0821.3,5.00,000.00,020.8,020.2,000.0,029.2,022.6,16.4,0000.1,0017.14,0011.20,0010.59
2024-03-27 00:41:00,SystemResetWarning,0821.3,5.01,000.00,020.8,020.2,000.0,029.2,022.7,16.2,0000.3,0016.97,0011.19,0010.56
2024-03-27 00:42:00,SystemResetWarning,0821.3,5.01,000.00,020.8,020.3,000.0,029.3,022.7,16.1,0000.6,0016.84,0011.13,0010.53
2024-03-27 00:43:00,SystemResetWarning,0821.3,5.00,000.00,020.8,020.3,000.0,029.3,022.7,16.1,0001.0,0016.25,0011.12,0010.52
2024-03-27 00:44:00,SystemResetWarning,0821.3,5.00,000.00,020.8,020.3,000.0,029.3,022.7,16.0,0001.0,0016.87,0011.07,0010.47
2024-03-27 00:45:00,SystemResetWarning,0821.3,5.00,000.00,020.8,020.3,000.0,029.3,022.7,15.8,0001.1,0016.98,0011.03,0010.45
2024-03-27 00:46:00,SystemResetWarning,0821.3,4.99,000.00,020.9,020.3,000.0,029.3,022.7,15.7,0001.2,0016.93,0010.99,0010.43
2024-03-27 00:47:00,SystemResetWarning,0821.3,4.99,000.00,020.9,020.3,000.0,029.3,022.7,15.7,0001.1,0017.67,0010.99,0010.44
2024-03-27 00:48:00,SystemResetWarning,0821.3,5.00,000.00,020.9,020.3,000.0,029.3,022.7,15.6,0001.3,0017.78,0011.04,0010.48
2024-03-27 00:49:00,SystemResetWarning,0821.3,5.00,000.00,020.9,020.3,000.0,029.3,022.7,15.6,0001.0,0018.05,0011.09,0010.50
2024-03-27 00:50:00,SystemResetWarning,0821.3,5.01,000.00,020.9,020.3,000.0,029.3,022.7,15.6,0001.0,0018.15,0011.09,0010.51
2024-03-27 00:51:00,SystemResetWarning,0821.4,5.00,000.00,020.9,020.3,000.0,029.3,022.7,15.8,0001.1,0017.68,0011.12,0010.52
2024-03-27 00:52:00,SystemResetWarning,0821.4,5.00,000.00,020.9,020.3,000.0,029.4,022.8,16.1,0001.3,0018.11,0011.15,0010.57
2024-03-27 00:53:00,SystemResetWarning,0821.4,5.00,000.00,020.9,020.3,000.0,029.4,022.7,16.3,0001.1,0019.57,0011.18,0010.61
2024-03-27 00:54:00,SystemResetWarning,0821.5,5.00,000.00,020.9,020.3,000.0,029.4,022.8,16.8,0001.0,0020.36,0011.21,0010.62
2024-03-27 00:55:00,SystemResetWarning,0821.4,5.00,000.00,020.9,020.3,000.0,029.4,022.8,17.1,0001.0,0019.98,0011.24,0010.64
2024-03-27 00:56:00,SystemResetWarning,0821.5,4.99,000.00,020.9,020.3,000.0,029.4,022.8,17.2,0001.1,0019.46,0011.24,0010.64
2024-03-27 00:57:00,SystemResetWarning,0821.9,5.00,000.00,020.9,020.3,000.0,029.4,022.8,17.4,0001.1,0019.57,0011.26,0010.65
2024-03-27 00:58:00,SystemResetWarning,0821.7,5.01,000.00,020.9,020.3,000.0,029.4,022.8,17.3,0001.2,0018.61,0011.27,0010.65
2024-03-27 00:59:00,SystemResetWarning,0822.0,5.00,000.00,020.9,020.3,000.0,029.4,022.8,17.3,0001.2,0018.13,0011.24,0010.60
